Daviess Cnty AP, Washington,, IN

11:24 AM EST on December 15, 2019 (GMT -0500)
Daviess County

Weather History for KDCY - May, 2019

Change the Weather History Date:

Friday, May 24, 2019

  Actual Average (KLWV) Record (KLWV)
Temperature  
Mean Temperature 78 °F 68 °F  
Max Temperature 88 °F 79 °F 91 °F (2000)
Min Temperature 68 °F 58 °F 42 °F (2013)
Degree Days  
Heating Degree Days 0 2  
Month to date heating degree days 75  
Since 1 July heating degree days 4666  
Cooling Degree Days 13 5  
Month to date cooling degree days 73  
Year to date cooling degree days 99  
Growing Degree Days 28 (Base 50)    
Moisture  
Dew Point 68 °F    
Average Humidity 74    
Maximum Humidity 99    
Minimum Humidity 44    
Precipitation  
Precipitation 0.00 in 0.15 in 1.22 in (1978)
Month to date precipitation 4.68  
Year to date precipitation 16.66  
Sea Level Pressure  
Sea Level Pressure 30.07 in    
Wind  
Wind Speed 4 mph (SW)    
Max Wind Speed 17 mph    
Max Gust Speed 21 mph    
Visibility 8 miles    
Events      
T = Trace of Precipitation, MM = Missing Value Source: NWS Daily Summary

Daily Weather History Graph

Daily Weather History Graph

Search for Another Location

Airport or City:

Astronomy

May. 24, 2019 Rise Set
Actual Time 6:29 AM EDT 9:01 PM EDT
Civil Twilight 5:59 AM EDT 9:32 PM EDT
Nautical Twilight 5:21 AM EDT 10:10 PM EDT
Astronomical Twilight 4:38 AM EDT 10:52 PM EDT
Moon 1:25 AM EDT (5/24) 11:30 AM EDT (5/24)
Length of Visible Light 15h 32m
Length of Day
14h 31m
Waning Gibbous, 69% of the Moon is Illuminated
May 24
Waning Gibbous
May 26
Last Quarter
Jun 3
New
Jun 10
First Quarter
Jun 17
Full

Hourly Weather History & Observations

Time (EDT) Temp. Heat Index Dew Point Humidity Pressure Visibility Wind Dir Wind Speed Gust Speed Precip Events Conditions
12:15 AM 72.0 °F - 71.8 °F 99% 30.08 in 10.0 mi SSW 3.5 mph - N/A   Scattered Clouds
12:35 AM 72.7 °F - 72.5 °F 99% 30.08 in 10.0 mi Calm Calm - N/A   Scattered Clouds
12:55 AM 70.9 °F - 70.5 °F 99% 30.08 in 7.0 mi Calm Calm - N/A   Scattered Clouds
1:15 AM 70.2 °F - 70.0 °F 99% 30.08 in 7.0 mi Calm Calm - N/A   Scattered Clouds
1:35 AM 70.3 °F - 70.0 °F 99% 30.07 in 7.0 mi Calm Calm - N/A   Mostly Cloudy
1:55 AM 70.0 °F - 69.8 °F 99% 30.07 in 5.0 mi Calm Calm - N/A   Mostly Cloudy
2:15 AM 69.8 °F - 69.3 °F 98% 30.07 in 5.0 mi Calm Calm - N/A   Mostly Cloudy
2:35 AM 70.2 °F - 70.0 °F 99% 30.07 in 5.0 mi Calm Calm - N/A   Mostly Cloudy
2:55 AM 69.8 °F - 69.4 °F 99% 30.06 in 4.0 mi Calm Calm - N/A   Mostly Cloudy
3:15 AM 70.0 °F - 69.8 °F 99% 30.06 in 5.0 mi Calm Calm - N/A   Scattered Clouds
3:35 AM 69.6 °F - 69.3 °F 99% 30.06 in 4.0 mi Calm Calm - N/A   Scattered Clouds
3:55 AM 68.9 °F - 68.5 °F 99% 30.06 in 2.0 mi Calm Calm - N/A   Mostly Cloudy
4:15 AM 69.4 °F - 69.1 °F 99% 30.06 in 5.0 mi Calm Calm - N/A   Mostly Cloudy
4:35 AM 69.3 °F - 68.9 °F 99% 30.07 in 4.0 mi Calm Calm - N/A   Mostly Cloudy
4:55 AM 68.7 °F - 68.4 °F 99% 30.07 in 2.5 mi Calm Calm - N/A   Scattered Clouds
5:15 AM 68.4 °F - 68.2 °F 99% 30.07 in 2.5 mi Calm Calm - N/A   Scattered Clouds
5:35 AM 68.4 °F - 68.0 °F 99% 30.07 in 2.5 mi Calm Calm - N/A   Clear
5:55 AM 69.3 °F - 68.9 °F 99% 30.07 in 1.5 mi South 4.6 mph - N/A   Mist
6:15 AM 69.6 °F - 69.3 °F 99% 30.08 in 5.0 mi Calm Calm - N/A   Scattered Clouds
6:35 AM 69.6 °F - 69.3 °F 99% 30.10 in 5.0 mi SSW 4.6 mph - N/A   Mostly Cloudy
6:55 AM 70.0 °F - 69.8 °F 99% 30.10 in 7.0 mi SSW 4.6 mph - N/A   Scattered Clouds
7:15 AM 70.5 °F - 70.2 °F 99% 30.11 in 7.0 mi SSW 3.5 mph - N/A   Clear
7:35 AM 71.2 °F - 70.9 °F 99% 30.11 in 7.0 mi SSW 4.6 mph - N/A   Clear
7:55 AM 72.1 °F - 71.8 °F 99% 30.11 in 10.0 mi SSW 5.8 mph - N/A   Clear
8:15 AM 72.7 °F - 72.3 °F 99% 30.12 in 10.0 mi SSW 5.8 mph - N/A   Clear
8:35 AM 74.3 °F - 73.9 °F 99% 30.12 in 10.0 mi SSW 5.8 mph - N/A   Clear
8:55 AM 75.4 °F - 73.6 °F 94% 30.12 in 10.0 mi SSW 8.1 mph - N/A   Clear
9:15 AM 76.1 °F - 73.2 °F 91% 30.12 in 10.0 mi SW 6.9 mph - N/A   Clear
9:35 AM 77.9 °F - 72.7 °F 84% 30.12 in 10.0 mi SW 5.8 mph - N/A   Clear
9:55 AM 79.0 °F - 72.5 °F 80% 30.12 in 10.0 mi SW 5.8 mph - N/A   Clear
10:15 AM 79.9 °F - 71.2 °F 75% 30.12 in 10.0 mi SW 6.9 mph - N/A   Clear
10:35 AM 81.0 °F 84.6 °F 70.2 °F 70% 30.12 in 10.0 mi SW 9.2 mph - N/A   Clear
10:55 AM 81.7 °F 85.4 °F 70.0 °F 68% 30.12 in 10.0 mi WSW 6.9 mph - N/A   Clear
11:15 AM 82.9 °F 86.0 °F 68.4 °F 61% 30.12 in 10.0 mi WSW 10.4 mph - N/A   Clear
11:35 AM 83.8 °F 86.7 °F 67.8 °F 58% 30.11 in 10.0 mi West 11.5 mph - N/A   Clear
11:55 AM 84.4 °F 87.6 °F 68.2 °F 58% 30.11 in 10.0 mi SW 9.2 mph - N/A   Clear
12:15 PM 84.9 °F 87.6 °F 66.9 °F 55% 30.11 in 10.0 mi WSW 10.4 mph 16.1 mph N/A   Clear
12:35 PM 84.9 °F 87.1 °F 66.0 °F 53% 30.11 in 10.0 mi WSW 12.7 mph - N/A   Clear
12:55 PM 85.6 °F 87.6 °F 65.5 °F 51% 30.10 in 10.0 mi West 11.5 mph 16.1 mph N/A   Clear
1:15 PM 86.0 °F 87.3 °F 64.0 °F 48% 30.10 in 10.0 mi West 17.3 mph - N/A   Clear
1:35 PM 86.2 °F 87.6 °F 64.4 °F 48% 30.11 in 10.0 mi WSW 12.7 mph 20.7 mph N/A   Clear
1:55 PM 86.0 °F 87.3 °F 64.0 °F 48% 30.11 in 10.0 mi SW 16.1 mph - N/A   Clear
2:15 PM 86.9 °F 88.1 °F 63.9 °F 46% 30.10 in 10.0 mi WSW 15.0 mph 19.6 mph N/A   Clear
2:35 PM 87.8 °F 89.4 °F 64.6 °F 46% 30.10 in 10.0 mi West 10.4 mph 18.4 mph N/A   Scattered Clouds
2:55 PM 87.8 °F 89.4 °F 64.8 °F 46% 30.10 in 10.0 mi SSW 10.4 mph - N/A   Scattered Clouds
3:15 PM 88.5 °F 90.1 °F 64.4 °F 45% 30.10 in 10.0 mi WSW 9.2 mph - N/A   Scattered Clouds
3:35 PM 88.7 °F 90.4 °F 65.1 °F 45% 30.09 in 10.0 mi WSW 8.1 mph 17.3 mph N/A   Scattered Clouds
3:55 PM 88.7 °F 90.1 °F 64.4 °F 44% 30.09 in 10.0 mi SW 9.2 mph - N/A   Scattered Clouds
4:15 PM 87.8 °F 89.7 °F 65.5 °F 47% 30.08 in 10.0 mi SSW 8.1 mph - N/A   Mostly Cloudy
4:35 PM 88.5 °F 90.5 °F 65.5 °F 46% 30.08 in 10.0 mi SSW 6.9 mph - N/A   Scattered Clouds
4:55 PM 88.7 °F 90.8 °F 65.5 °F 46% 30.07 in 10.0 mi SW 8.1 mph - N/A   Clear
5:15 PM 88.3 °F 90.2 °F 65.3 °F 46% 30.06 in 10.0 mi WSW 9.2 mph - N/A   Clear
5:35 PM 88.3 °F 90.5 °F 65.7 °F 47% 30.06 in 10.0 mi SW 4.6 mph - N/A   Clear
5:55 PM 87.6 °F 90.1 °F 66.2 °F 49% 30.05 in 10.0 mi SW 5.8 mph - N/A   Scattered Clouds
6:15 PM 87.6 °F 90.4 °F 66.7 °F 50% 30.05 in 10.0 mi SSW 6.9 mph - N/A   Scattered Clouds
6:35 PM 87.1 °F 89.9 °F 66.7 °F 51% 30.04 in 10.0 mi SSW 8.1 mph - N/A   Clear
6:55 PM 86.9 °F 89.6 °F 66.7 °F 51% 30.03 in 10.0 mi SSW 8.1 mph - N/A   Clear
7:15 PM 86.2 °F 89.4 °F 67.6 °F 54% 30.02 in 10.0 mi South 10.4 mph - N/A   Clear
7:35 PM 85.3 °F 88.2 °F 67.6 °F 55% 30.01 in 10.0 mi South 11.5 mph - N/A   Clear
7:55 PM 84.2 °F 87.3 °F 68.2 °F 58% 30.00 in 5.0 mi South 8.1 mph - N/A   Haze
8:15 PM 82.9 °F 86.0 °F 68.4 °F 61% 30.00 in 10.0 mi South 6.9 mph - N/A   Clear
8:35 PM 81.5 °F 84.4 °F 68.4 °F 64% 30.00 in 10.0 mi South 6.9 mph - N/A   Clear
8:55 PM 79.0 °F - 68.4 °F 70% 30.00 in 10.0 mi South 5.8 mph - N/A   Clear
9:15 PM 77.5 °F - 68.2 °F 73% 29.99 in 10.0 mi South 5.8 mph - N/A   Clear
9:35 PM 76.3 °F - 68.2 °F 76% 29.99 in 10.0 mi South 4.6 mph - N/A   Clear
9:55 PM 75.4 °F - 68.2 °F 78% 29.99 in 10.0 mi SSW 5.8 mph - N/A   Clear
10:15 PM 76.3 °F - 67.5 °F 74% 29.99 in 10.0 mi South 6.9 mph - N/A   Clear
10:35 PM 74.5 °F - 67.8 °F 80% 30.00 in 10.0 mi SSW 5.8 mph - N/A   Clear
10:55 PM 77.2 °F - 66.4 °F 69% 30.00 in 10.0 mi SSW 8.1 mph - N/A   Clear
11:15 PM 76.1 °F - 66.4 °F 72% 30.01 in 10.0 mi SSW 8.1 mph - N/A   Clear
11:35 PM 75.7 °F - 66.2 °F 72% 30.02 in 10.0 mi SSW 8.1 mph - N/A   Clear
11:55 PM 76.1 °F - 65.5 °F 70% 30.02 in 10.0 mi SSW 9.2 mph - N/A   Clear